#datetime,building,power
2022-05-29T00:01:00,pth,13.20
2022-05-29T00:03:00,pth,13.20
2022-05-29T00:04:00,pth,6.00
2022-05-29T00:06:00,pth,13.20
2022-05-29T00:07:00,pth,7.20
2022-05-29T00:09:00,pth,13.20
2022-05-29T00:11:00,pth,12.00
2022-05-29T00:13:00,pth,13.20
2022-05-29T00:14:00,pth,7.20
2022-05-29T00:16:00,pth,13.20
2022-05-29T00:18:00,pth,3.60
2022-05-29T00:19:00,pth,6.00
2022-05-29T00:20:00,pth,7.20
2022-05-29T00:22:00,pth,3.60
2022-05-29T00:23:00,pth,1.20
2022-05-29T00:25:00,pth,2.40
2022-05-29T00:27:00,pth,2.40
2022-05-29T00:29:00,pth,2.40
2022-05-29T00:31:00,pth,1.20
2022-05-29T00:33:00,pth,2.40
2022-05-29T00:35:00,pth,2.40
2022-05-29T00:37:00,pth,1.20
2022-05-29T00:39:00,pth,2.40
2022-05-29T00:41:00,pth,2.40
2022-05-29T00:42:00,pth,1.20
2022-05-29T00:44:00,pth,1.20
2022-05-29T00:45:00,pth,1.20
2022-05-29T00:46:00,pth,1.20
2022-05-29T00:48:00,pth,2.40
2022-05-29T00:50:00,pth,1.20
2022-05-29T00:52:00,pth,2.40
2022-05-29T00:54:00,pth,2.40
2022-05-29T00:56:00,pth,1.20
2022-05-29T00:58:00,pth,2.40
2022-05-29T00:59:00,pth,1.20
2022-05-29T01:01:00,pth,1.20
2022-05-29T01:03:00,pth,2.40
2022-05-29T01:05:00,pth,2.40
2022-05-29T01:07:00,pth,1.20
2022-05-29T01:09:00,pth,2.40
2022-05-29T01:10:00,pth,1.20
2022-05-29T01:12:00,pth,1.20
2022-05-29T01:14:00,pth,2.40
2022-05-29T01:15:00,pth,1.20
2022-05-29T01:17:00,pth,1.20
2022-05-29T01:18:00,pth,1.20
2022-05-29T01:20:00,pth,1.20
2022-05-29T01:21:00,pth,1.20
2022-05-29T01:24:00,pth,2.40
2022-05-29T01:26:00,pth,1.20
2022-05-29T01:28:00,pth,2.40
2022-05-29T01:30:00,pth,1.20
2022-05-29T01:31:00,pth,1.20
2022-05-29T01:33:00,pth,1.20
2022-05-29T01:35:00,pth,1.20
2022-05-29T01:36:00,pth,1.20
2022-05-29T01:37:00,pth,1.20
2022-05-29T01:39:00,pth,1.20
2022-05-29T01:41:00,pth,2.40
2022-05-29T01:43:00,pth,1.20
2022-05-29T01:44:00,pth,1.20
2022-05-29T01:46:00,pth,1.20
2022-05-29T01:48:00,pth,1.20
2022-05-29T01:50:00,pth,2.40
2022-05-29T01:53:00,pth,2.40
2022-05-29T01:55:00,pth,1.20
2022-05-29T01:56:00,pth,1.20
2022-05-29T01:58:00,pth,1.20
2022-05-29T02:00:00,pth,2.40
2022-05-29T02:03:00,pth,2.40
2022-05-29T02:05:00,pth,1.20
2022-05-29T02:07:00,pth,1.20
2022-05-29T02:09:00,pth,2.40
2022-05-29T02:11:00,pth,1.20
2022-05-29T02:12:00,pth,1.20
2022-05-29T02:13:00,pth,1.20
2022-05-29T02:16:00,pth,2.40
2022-05-29T02:19:00,pth,2.40
2022-05-29T02:21:00,pth,1.20
2022-05-29T02:23:00,pth,1.20
2022-05-29T02:25:00,pth,2.40
2022-05-29T02:27:00,pth,1.20
2022-05-29T02:29:00,pth,2.40
2022-05-29T02:32:00,pth,2.40
2022-05-29T02:34:00,pth,1.20
2022-05-29T02:36:00,pth,2.40
2022-05-29T02:39:00,pth,2.40
2022-05-29T02:42:00,pth,2.40
2022-05-29T02:44:00,pth,1.20
2022-05-29T02:46:00,pth,1.20
2022-05-29T02:47:00,pth,1.20
2022-05-29T02:49:00,pth,2.40
2022-05-29T02:51:00,pth,1.20
2022-05-29T02:53:00,pth,1.20
2022-05-29T02:55:00,pth,2.40
2022-05-29T02:57:00,pth,1.20
2022-05-29T02:59:00,pth,1.20
2022-05-29T03:00:00,pth,1.20
2022-05-29T03:02:00,pth,1.20
2022-05-29T03:03:00,pth,1.20
2022-05-29T03:05:00,pth,2.40
2022-05-29T03:08:00,pth,2.40
2022-05-29T03:11:00,pth,2.40
2022-05-29T03:13:00,pth,1.20
2022-05-29T03:15:00,pth,1.20
2022-05-29T03:16:00,pth,1.20
2022-05-29T03:18:00,pth,1.20
2022-05-29T03:20:00,pth,2.40
2022-05-29T03:22:00,pth,1.20
2022-05-29T03:23:00,pth,1.20
2022-05-29T03:25:00,pth,1.20
2022-05-29T03:26:00,pth,1.20
2022-05-29T03:28:00,pth,2.40
2022-05-29T03:30:00,pth,1.20
2022-05-29T03:31:00,pth,1.20
2022-05-29T03:33:00,pth,2.40
2022-05-29T03:35:00,pth,1.20
2022-05-29T03:37:00,pth,2.40
2022-05-29T03:38:00,pth,1.20
2022-05-29T03:40:00,pth,1.20
2022-05-29T03:41:00,pth,1.20
2022-05-29T03:43:00,pth,2.40
2022-05-29T03:44:00,pth,1.20
2022-05-29T03:46:00,pth,2.40
2022-05-29T03:48:00,pth,2.40
2022-05-29T03:50:00,pth,2.40
2022-05-29T03:51:00,pth,1.20
2022-05-29T03:53:00,pth,1.20
2022-05-29T03:55:00,pth,2.40
2022-05-29T03:56:00,pth,1.20
2022-05-29T03:58:00,pth,1.20
2022-05-29T04:00:00,pth,2.40
2022-05-29T04:02:00,pth,2.40
2022-05-29T04:04:00,pth,1.20
2022-05-29T04:06:00,pth,2.40
2022-05-29T04:08:00,pth,2.40
2022-05-29T04:11:00,pth,2.40
2022-05-29T04:12:00,pth,1.20
2022-05-29T04:14:00,pth,1.20
2022-05-29T04:16:00,pth,1.20
2022-05-29T04:18:00,pth,2.40
2022-05-29T04:21:00,pth,2.40
2022-05-29T04:24:00,pth,2.40
2022-05-29T04:26:00,pth,1.20
2022-05-29T04:27:00,pth,1.20
2022-05-29T04:29:00,pth,1.20
2022-05-29T04:30:00,pth,1.20
2022-05-29T04:32:00,pth,2.40
2022-05-29T04:34:00,pth,1.20
2022-05-29T04:35:00,pth,1.20
2022-05-29T04:37:00,pth,1.20
2022-05-29T04:38:00,pth,1.20
2022-05-29T04:39:00,pth,1.20
2022-05-29T04:42:00,pth,2.40
2022-05-29T04:44:00,pth,2.40
2022-05-29T04:46:00,pth,1.20
2022-05-29T04:48:00,pth,2.40
2022-05-29T04:50:00,pth,2.40
2022-05-29T04:52:00,pth,2.40
2022-05-29T04:53:00,pth,1.20
2022-05-29T04:55:00,pth,2.40
2022-05-29T04:57:00,pth,1.20
2022-05-29T04:59:00,pth,2.40
2022-05-29T05:00:00,pth,1.20
2022-05-29T05:01:00,pth,1.20
2022-05-29T05:03:00,pth,2.40
2022-05-29T05:05:00,pth,1.20
2022-05-29T05:07:00,pth,2.40
2022-05-29T05:10:00,pth,2.40
2022-05-29T05:11:00,pth,1.20
2022-05-29T05:13:00,pth,1.20
2022-05-29T05:14:00,pth,1.20
2022-05-29T05:16:00,pth,1.20
2022-05-29T05:17:00,pth,1.20
2022-05-29T05:19:00,pth,1.20
2022-05-29T05:21:00,pth,2.40
2022-05-29T05:23:00,pth,1.20
2022-05-29T05:24:00,pth,1.20
2022-05-29T05:26:00,pth,2.40
2022-05-29T05:28:00,pth,1.20
2022-05-29T05:30:00,pth,2.40
2022-05-29T05:32:00,pth,1.20
2022-05-29T05:34:00,pth,2.40
2022-05-29T05:36:00,pth,2.40
2022-05-29T05:38:00,pth,1.20
2022-05-29T05:40:00,pth,2.40
2022-05-29T05:42:00,pth,2.40
2022-05-29T05:43:00,pth,1.20
2022-05-29T05:45:00,pth,1.20
2022-05-29T05:46:00,pth,1.20
2022-05-29T05:48:00,pth,2.40
2022-05-29T05:50:00,pth,1.20
2022-05-29T05:51:00,pth,1.20
2022-05-29T05:53:00,pth,1.20
2022-05-29T05:54:00,pth,1.20
2022-05-29T05:56:00,pth,2.40
2022-05-29T05:58:00,pth,2.40
2022-05-29T06:00:00,pth,2.40
2022-05-29T06:02:00,pth,1.20
2022-05-29T06:04:00,pth,2.40
2022-05-29T06:05:00,pth,1.20
2022-05-29T06:07:00,pth,1.20
2022-05-29T06:08:00,pth,1.20
2022-05-29T06:10:00,pth,2.40
2022-05-29T06:12:00,pth,2.40
2022-05-29T06:13:00,pth,1.20
2022-05-29T06:14:00,pth,1.20
2022-05-29T06:16:00,pth,2.40
2022-05-29T06:17:00,pth,1.20
2022-05-29T06:19:00,pth,1.20
2022-05-29T06:21:00,pth,2.40
2022-05-29T06:23:00,pth,2.40
2022-05-29T06:26:00,pth,1.20
2022-05-29T06:28:00,pth,2.40
2022-05-29T06:30:00,pth,1.20
2022-05-29T06:31:00,pth,1.20
2022-05-29T06:34:00,pth,1.20
2022-05-29T06:36:00,pth,2.40
2022-05-29T06:39:00,pth,2.40
2022-05-29T06:41:00,pth,1.20
2022-05-29T06:43:00,pth,1.20
2022-05-29T06:44:00,pth,1.20
2022-05-29T06:46:00,pth,1.20
2022-05-29T06:48:00,pth,2.40
2022-05-29T06:50:00,pth,1.20
2022-05-29T06:52:00,pth,1.20
2022-05-29T06:53:00,pth,1.20
2022-05-29T06:56:00,pth,2.40
2022-05-29T06:57:00,pth,1.20
2022-05-29T06:59:00,pth,1.20
2022-05-29T07:01:00,pth,1.20
2022-05-29T07:02:00,pth,1.20
2022-05-29T07:04:00,pth,1.20
2022-05-29T07:06:00,pth,1.20
2022-05-29T07:08:00,pth,2.40
2022-05-29T07:10:00,pth,1.20
2022-05-29T07:12:00,pth,2.40
2022-05-29T07:14:00,pth,2.40
2022-05-29T07:16:00,pth,1.20
2022-05-29T07:17:00,pth,1.20
2022-05-29T07:19:00,pth,1.20
2022-05-29T07:20:00,pth,1.20
2022-05-29T07:21:00,pth,1.20
2022-05-29T07:23:00,pth,1.20
2022-05-29T07:25:00,pth,2.40
2022-05-29T07:27:00,pth,2.40
2022-05-29T07:29:00,pth,1.20
2022-05-29T07:31:00,pth,2.40
2022-05-29T07:33:00,pth,1.20
2022-05-29T07:34:00,pth,1.20
2022-05-29T07:35:00,pth,1.20
2022-05-29T07:36:00,pth,2.40
2022-05-29T07:38:00,pth,2.40
2022-05-29T07:40:00,pth,1.20
2022-05-29T07:42:00,pth,1.20
2022-05-29T07:44:00,pth,2.40
2022-05-29T07:47:00,pth,2.40
2022-05-29T07:48:00,pth,1.20
2022-05-29T07:50:00,pth,1.20
2022-05-29T07:51:00,pth,1.20
2022-05-29T07:53:00,pth,1.20
2022-05-29T07:54:00,pth,1.20
2022-05-29T07:56:00,pth,1.20
2022-05-29T07:57:00,pth,1.20
2022-05-29T07:59:00,pth,2.40
2022-05-29T08:01:00,pth,1.20
2022-05-29T08:03:00,pth,1.20
2022-05-29T08:05:00,pth,2.40
2022-05-29T08:06:00,pth,1.20
2022-05-29T08:08:00,pth,1.20
2022-05-29T08:10:00,pth,1.20
2022-05-29T08:11:00,pth,1.20
2022-05-29T08:13:00,pth,1.20
2022-05-29T08:15:00,pth,2.40
2022-05-29T08:17:00,pth,1.20
2022-05-29T08:19:00,pth,2.40
2022-05-29T08:22:00,pth,2.40
2022-05-29T08:24:00,pth,1.20
2022-05-29T08:26:00,pth,2.40
2022-05-29T08:27:00,pth,1.20
2022-05-29T08:29:00,pth,1.20
2022-05-29T08:30:00,pth,1.20
2022-05-29T08:32:00,pth,1.20
2022-05-29T08:33:00,pth,1.20
2022-05-29T08:34:00,pth,1.20
2022-05-29T08:36:00,pth,4.80
2022-05-29T08:38:00,pth,2.40
2022-05-29T08:40:00,pth,1.20
2022-05-29T08:42:00,pth,2.40
2022-05-29T08:44:00,pth,1.20
2022-05-29T08:46:00,pth,2.40
2022-05-29T08:48:00,pth,1.20
2022-05-29T08:49:00,pth,1.20
2022-05-29T08:51:00,pth,1.20
2022-05-29T08:53:00,pth,1.20
2022-05-29T08:54:00,pth,1.20
2022-05-29T08:56:00,pth,1.20
2022-05-29T08:58:00,pth,2.40
2022-05-29T09:00:00,pth,3.60
2022-05-29T09:02:00,pth,1.20
2022-05-29T09:03:00,pth,1.20
2022-05-29T09:05:00,pth,2.40
2022-05-29T09:08:00,pth,2.40
2022-05-29T09:10:00,pth,1.20
2022-05-29T09:11:00,pth,1.20
2022-05-29T09:13:00,pth,1.20
2022-05-29T09:14:00,pth,1.20
2022-05-29T09:16:00,pth,1.20
2022-05-29T09:18:00,pth,2.40
2022-05-29T09:20:00,pth,1.20
2022-05-29T09:22:00,pth,1.20
2022-05-29T09:24:00,pth,1.20
2022-05-29T09:25:00,pth,1.20
2022-05-29T09:28:00,pth,1.20
2022-05-29T09:30:00,pth,1.20
2022-05-29T09:32:00,pth,1.20
2022-05-29T09:33:00,pth,1.20
2022-05-29T09:35:00,pth,1.20
2022-05-29T09:37:00,pth,1.20
2022-05-29T09:39:00,pth,1.20
2022-05-29T09:41:00,pth,1.20
2022-05-29T09:43:00,pth,1.20
2022-05-29T09:44:00,pth,1.20
2022-05-29T09:47:00,pth,1.20
2022-05-29T09:49:00,pth,1.20
2022-05-29T09:52:00,pth,1.20
2022-05-29T09:54:00,pth,1.20
2022-05-29T09:55:00,pth,1.20
2022-05-29T09:57:00,pth,1.20
2022-05-29T10:00:00,pth,1.20
2022-05-29T10:01:00,pth,1.20
2022-05-29T10:03:00,pth,1.20
2022-05-29T10:05:00,pth,1.20
2022-05-29T10:07:00,pth,1.20
2022-05-29T10:09:00,pth,1.20
2022-05-29T10:12:00,pth,1.20
2022-05-29T10:14:00,pth,1.20
2022-05-29T10:17:00,pth,1.20
2022-05-29T10:18:00,pth,1.20
2022-05-29T10:20:00,pth,1.20
2022-05-29T10:24:00,pth,1.20
2022-05-29T10:25:00,pth,1.20
2022-05-29T10:27:00,pth,1.20
2022-05-29T10:30:00,pth,1.20
2022-05-29T10:33:00,pth,1.20
2022-05-29T10:35:00,pth,1.20
2022-05-29T10:36:00,pth,1.20
2022-05-29T10:40:00,pth,1.20
2022-05-29T10:41:00,pth,1.20
2022-05-29T10:43:00,pth,1.20
2022-05-29T10:46:00,pth,1.20
2022-05-29T10:48:00,pth,1.20
2022-05-29T10:51:00,pth,1.20
2022-05-29T10:53:00,pth,1.20
2022-05-29T10:55:00,pth,1.20
2022-05-29T10:57:00,pth,1.20
2022-05-29T10:59:00,pth,1.20
2022-05-29T11:01:00,pth,1.20
2022-05-29T11:05:00,pth,1.20
2022-05-29T11:07:00,pth,1.20
2022-05-29T11:09:00,pth,1.20
2022-05-29T11:11:00,pth,1.20
2022-05-29T11:13:00,pth,1.20
2022-05-29T11:15:00,pth,1.20
2022-05-29T11:17:00,pth,1.20
2022-05-29T11:21:00,pth,1.20
2022-05-29T11:23:00,pth,1.20
2022-05-29T11:24:00,pth,1.20
2022-05-29T11:26:00,pth,1.20
2022-05-29T11:29:00,pth,1.20
2022-05-29T11:32:00,pth,1.20
2022-05-29T11:34:00,pth,1.20
2022-05-29T11:35:00,pth,1.20
2022-05-29T11:37:00,pth,1.20
2022-05-29T11:39:00,pth,1.20
2022-05-29T11:41:00,pth,1.20
2022-05-29T11:44:00,pth,1.20
2022-05-29T11:46:00,pth,1.20
2022-05-29T11:48:00,pth,2.40
2022-05-29T11:50:00,pth,1.20
2022-05-29T11:53:00,pth,1.20
2022-05-29T11:54:00,pth,1.20
2022-05-29T11:56:00,pth,1.20
2022-05-29T11:59:00,pth,1.20
2022-05-29T12:01:00,pth,2.40
2022-05-29T12:03:00,pth,1.20
2022-05-29T12:06:00,pth,1.20
2022-05-29T12:07:00,pth,1.20
2022-05-29T12:09:00,pth,1.20
2022-05-29T12:11:00,pth,1.20
2022-05-29T12:13:00,pth,1.20
2022-05-29T12:15:00,pth,1.20
2022-05-29T12:17:00,pth,1.20
2022-05-29T12:19:00,pth,1.20
2022-05-29T12:20:00,pth,1.20
2022-05-29T12:22:00,pth,1.20
2022-05-29T12:24:00,pth,2.40
2022-05-29T12:27:00,pth,2.40
2022-05-29T12:30:00,pth,2.40
2022-05-29T12:32:00,pth,1.20
2022-05-29T12:34:00,pth,1.20
2022-05-29T12:36:00,pth,1.20
2022-05-29T12:37:00,pth,1.20
2022-05-29T12:39:00,pth,1.20
2022-05-29T12:43:00,pth,1.20
2022-05-29T12:44:00,pth,1.20
2022-05-29T12:46:00,pth,1.20
2022-05-29T12:48:00,pth,1.20
2022-05-29T12:50:00,pth,1.20
2022-05-29T12:52:00,pth,1.20
2022-05-29T12:55:00,pth,1.20
2022-05-29T12:58:00,pth,1.20
2022-05-29T13:00:00,pth,1.20
2022-05-29T13:01:00,pth,1.20
2022-05-29T13:03:00,pth,1.20
2022-05-29T13:07:00,pth,1.20
2022-05-29T13:08:00,pth,1.20
2022-05-29T13:10:00,pth,1.20
2022-05-29T13:13:00,pth,1.20
2022-05-29T13:16:00,pth,1.20
2022-05-29T13:18:00,pth,1.20
2022-05-29T13:19:00,pth,1.20
2022-05-29T13:23:00,pth,1.20
2022-05-29T13:24:00,pth,1.20
2022-05-29T13:26:00,pth,1.20
2022-05-29T13:29:00,pth,1.20
2022-05-29T13:31:00,pth,1.20
2022-05-29T13:32:00,pth,1.20
2022-05-29T13:35:00,pth,1.20
2022-05-29T13:36:00,pth,1.20
2022-05-29T13:38:00,pth,1.20
2022-05-29T13:40:00,pth,2.40
2022-05-29T13:42:00,pth,1.20
2022-05-29T13:44:00,pth,1.20
2022-05-29T13:46:00,pth,2.40
2022-05-29T13:48:00,pth,1.20
2022-05-29T13:50:00,pth,1.20
2022-05-29T13:52:00,pth,1.20
2022-05-29T13:54:00,pth,2.40
2022-05-29T13:57:00,pth,1.20
2022-05-29T13:58:00,pth,1.20
2022-05-29T14:00:00,pth,1.20
2022-05-29T14:02:00,pth,2.40
2022-05-29T14:05:00,pth,2.40
2022-05-29T14:08:00,pth,2.40
2022-05-29T14:10:00,pth,1.20
2022-05-29T14:12:00,pth,1.20
2022-05-29T14:14:00,pth,2.40
2022-05-29T14:17:00,pth,2.40
2022-05-29T14:18:00,pth,1.20
2022-05-29T14:21:00,pth,2.40
2022-05-29T14:22:00,pth,1.20
2022-05-29T14:24:00,pth,1.20
2022-05-29T14:25:00,pth,1.20
2022-05-29T14:27:00,pth,1.20
2022-05-29T14:28:00,pth,1.20
2022-05-29T14:30:00,pth,1.20
2022-05-29T14:31:00,pth,1.20
2022-05-29T14:33:00,pth,1.20
2022-05-29T14:35:00,pth,2.40
2022-05-29T14:37:00,pth,2.40
2022-05-29T14:39:00,pth,1.20
2022-05-29T14:40:00,pth,1.20
2022-05-29T14:42:00,pth,2.40
2022-05-29T14:44:00,pth,1.20
2022-05-29T14:46:00,pth,2.40
2022-05-29T14:48:00,pth,1.20
2022-05-29T14:50:00,pth,2.40
2022-05-29T14:52:00,pth,2.40
2022-05-29T14:55:00,pth,2.40
2022-05-29T14:57:00,pth,2.40
2022-05-29T14:59:00,pth,1.20
2022-05-29T15:00:00,pth,1.20
2022-05-29T15:02:00,pth,1.20
2022-05-29T15:04:00,pth,2.40
2022-05-29T15:06:00,pth,1.20
2022-05-29T15:08:00,pth,2.40
2022-05-29T15:11:00,pth,2.40
2022-05-29T15:12:00,pth,1.20
2022-05-29T15:15:00,pth,2.40
2022-05-29T15:16:00,pth,1.20
2022-05-29T15:18:00,pth,1.20
2022-05-29T15:20:00,pth,2.40
2022-05-29T15:22:00,pth,1.20
2022-05-29T15:24:00,pth,2.40
2022-05-29T15:26:00,pth,1.20
2022-05-29T15:28:00,pth,1.20
2022-05-29T15:29:00,pth,1.20
2022-05-29T15:31:00,pth,1.20
2022-05-29T15:33:00,pth,1.20
2022-05-29T15:34:00,pth,1.20
2022-05-29T15:36:00,pth,1.20
2022-05-29T15:38:00,pth,2.40
2022-05-29T15:40:00,pth,1.20
2022-05-29T15:42:00,pth,1.20
2022-05-29T15:43:00,pth,1.20
2022-05-29T15:44:00,pth,1.20
2022-05-29T15:46:00,pth,1.20
2022-05-29T15:47:00,pth,1.20
2022-05-29T15:49:00,pth,1.20
2022-05-29T15:51:00,pth,1.20
2022-05-29T15:53:00,pth,1.20
2022-05-29T15:55:00,pth,1.20
2022-05-29T15:57:00,pth,1.20
2022-05-29T15:59:00,pth,1.20
2022-05-29T16:00:00,pth,1.20
2022-05-29T16:03:00,pth,1.20
2022-05-29T16:04:00,pth,1.20
2022-05-29T16:06:00,pth,1.20
2022-05-29T16:07:00,pth,1.20
2022-05-29T16:08:00,pth,1.20
2022-05-29T16:10:00,pth,1.20
2022-05-29T16:11:00,pth,1.20
2022-05-29T16:13:00,pth,1.20
2022-05-29T16:14:00,pth,1.20
2022-05-29T16:16:00,pth,2.40
2022-05-29T16:18:00,pth,1.20
2022-05-29T16:21:00,pth,2.40
2022-05-29T16:23:00,pth,1.20
2022-05-29T16:25:00,pth,1.20
2022-05-29T16:27:00,pth,1.20
2022-05-29T16:28:00,pth,1.20
2022-05-29T16:30:00,pth,1.20
2022-05-29T16:32:00,pth,1.20
2022-05-29T16:34:00,pth,2.40
2022-05-29T16:37:00,pth,2.40
2022-05-29T16:40:00,pth,2.40
2022-05-29T16:43:00,pth,2.40
2022-05-29T16:45:00,pth,1.20
2022-05-29T16:47:00,pth,1.20
2022-05-29T16:49:00,pth,1.20
2022-05-29T16:50:00,pth,1.20
2022-05-29T16:52:00,pth,2.40
2022-05-29T16:54:00,pth,1.20
2022-05-29T16:56:00,pth,2.40
2022-05-29T16:58:00,pth,2.40
2022-05-29T17:01:00,pth,2.40
2022-05-29T17:02:00,pth,1.20
2022-05-29T17:04:00,pth,1.20
2022-05-29T17:06:00,pth,2.40
2022-05-29T17:08:00,pth,1.20
2022-05-29T17:09:00,pth,1.20
2022-05-29T17:11:00,pth,2.40
2022-05-29T17:14:00,pth,2.40
2022-05-29T17:16:00,pth,2.40
2022-05-29T17:19:00,pth,2.40
2022-05-29T17:21:00,pth,1.20
2022-05-29T17:23:00,pth,2.40
2022-05-29T17:26:00,pth,2.40
2022-05-29T17:28:00,pth,1.20
2022-05-29T17:29:00,pth,1.20
2022-05-29T17:31:00,pth,1.20
2022-05-29T17:33:00,pth,1.20
2022-05-29T17:34:00,pth,1.20
2022-05-29T17:36:00,pth,1.20
2022-05-29T17:37:00,pth,1.20
2022-05-29T17:39:00,pth,1.20
2022-05-29T17:41:00,pth,2.40
2022-05-29T17:43:00,pth,1.20
2022-05-29T17:44:00,pth,2.40
2022-05-29T17:46:00,pth,3.60
2022-05-29T17:48:00,pth,1.20
2022-05-29T17:50:00,pth,1.20
2022-05-29T17:54:00,pth,1.20
2022-05-29T17:56:00,pth,1.20
2022-05-29T17:57:00,pth,1.20
2022-05-29T17:59:00,pth,1.20
2022-05-29T18:02:00,pth,2.40
2022-05-29T18:04:00,pth,1.20
2022-05-29T18:06:00,pth,1.20
2022-05-29T18:08:00,pth,1.20
2022-05-29T18:10:00,pth,1.20
2022-05-29T18:12:00,pth,1.20
2022-05-29T18:15:00,pth,1.20
2022-05-29T18:17:00,pth,1.20
2022-05-29T18:19:00,pth,1.20
2022-05-29T18:21:00,pth,1.20
2022-05-29T18:23:00,pth,1.20
2022-05-29T18:24:00,pth,1.20
2022-05-29T18:26:00,pth,1.20
2022-05-29T18:28:00,pth,1.20
2022-05-29T18:31:00,pth,1.20
2022-05-29T18:32:00,pth,1.20
2022-05-29T18:34:00,pth,1.20
2022-05-29T18:37:00,pth,1.20
2022-05-29T18:39:00,pth,1.20
2022-05-29T18:41:00,pth,1.20
2022-05-29T18:43:00,pth,1.20
2022-05-29T18:45:00,pth,1.20
2022-05-29T18:48:00,pth,1.20
2022-05-29T18:50:00,pth,1.20
2022-05-29T18:52:00,pth,1.20
2022-05-29T18:54:00,pth,1.20
2022-05-29T18:56:00,pth,1.20
2022-05-29T18:58:00,pth,1.20
2022-05-29T19:00:00,pth,1.20
2022-05-29T19:02:00,pth,1.20
2022-05-29T19:05:00,pth,1.20
2022-05-29T19:06:00,pth,1.20
2022-05-29T19:09:00,pth,1.20
2022-05-29T19:12:00,pth,1.20
2022-05-29T19:13:00,pth,1.20
2022-05-29T19:16:00,pth,1.20
2022-05-29T19:18:00,pth,1.20
2022-05-29T19:20:00,pth,1.20
2022-05-29T19:24:00,pth,1.20
2022-05-29T19:26:00,pth,1.20
2022-05-29T19:28:00,pth,1.20
2022-05-29T19:32:00,pth,1.20
2022-05-29T19:34:00,pth,1.20
2022-05-29T19:37:00,pth,1.20
2022-05-29T19:40:00,pth,1.20
2022-05-29T19:41:00,pth,1.20
2022-05-29T19:45:00,pth,1.20
2022-05-29T19:47:00,pth,1.20
2022-05-29T19:49:00,pth,1.20
2022-05-29T19:53:00,pth,1.20
2022-05-29T19:54:00,pth,1.20
2022-05-29T19:57:00,pth,1.20
2022-05-29T20:01:00,pth,1.20
2022-05-29T20:02:00,pth,1.20
2022-05-29T20:05:00,pth,1.20
2022-05-29T20:08:00,pth,1.20
2022-05-29T20:10:00,pth,1.20
2022-05-29T20:14:00,pth,1.20
2022-05-29T20:16:00,pth,1.20
2022-05-29T20:18:00,pth,1.20
2022-05-29T20:22:00,pth,1.20
2022-05-29T20:24:00,pth,1.20
2022-05-29T20:27:00,pth,1.20
2022-05-29T20:28:00,pth,1.20
2022-05-29T20:30:00,pth,1.20
2022-05-29T20:31:00,pth,1.20
2022-05-29T20:33:00,pth,1.20
2022-05-29T20:34:00,pth,1.20
2022-05-29T20:37:00,pth,2.40
2022-05-29T20:39:00,pth,1.20
2022-05-29T20:41:00,pth,1.20
2022-05-29T20:43:00,pth,2.40
2022-05-29T20:45:00,pth,1.20
2022-05-29T20:46:00,pth,1.20
2022-05-29T20:47:00,pth,1.20
2022-05-29T20:49:00,pth,2.40
2022-05-29T20:51:00,pth,1.20
2022-05-29T20:52:00,pth,1.20
2022-05-29T20:54:00,pth,1.20
2022-05-29T20:56:00,pth,2.40
2022-05-29T20:58:00,pth,1.20
2022-05-29T21:00:00,pth,2.40
2022-05-29T21:03:00,pth,2.40
2022-05-29T21:05:00,pth,1.20
2022-05-29T21:07:00,pth,1.20
2022-05-29T21:08:00,pth,1.20
2022-05-29T21:10:00,pth,1.20
2022-05-29T21:12:00,pth,2.40
2022-05-29T21:13:00,pth,1.20
2022-05-29T21:15:00,pth,1.20
2022-05-29T21:17:00,pth,2.40
2022-05-29T21:18:00,pth,1.20
2022-05-29T21:20:00,pth,1.20
2022-05-29T21:22:00,pth,2.40
2022-05-29T21:23:00,pth,1.20
2022-05-29T21:25:00,pth,2.40
2022-05-29T21:26:00,pth,1.20
2022-05-29T21:28:00,pth,1.20
2022-05-29T21:30:00,pth,1.20
2022-05-29T21:32:00,pth,2.40
2022-05-29T21:34:00,pth,1.20
2022-05-29T21:36:00,pth,1.20
2022-05-29T21:38:00,pth,2.40
2022-05-29T21:40:00,pth,1.20
2022-05-29T21:42:00,pth,1.20
2022-05-29T21:43:00,pth,1.20
2022-05-29T21:45:00,pth,1.20
2022-05-29T21:47:00,pth,1.20
2022-05-29T21:49:00,pth,1.20
2022-05-29T21:50:00,pth,1.20
2022-05-29T21:52:00,pth,1.20
2022-05-29T21:54:00,pth,1.20
2022-05-29T21:56:00,pth,1.20
2022-05-29T21:57:00,pth,1.20
2022-05-29T21:59:00,pth,1.20
2022-05-29T22:00:00,pth,1.20
2022-05-29T22:02:00,pth,1.20
2022-05-29T22:04:00,pth,1.20
2022-05-29T22:05:00,pth,1.20
2022-05-29T22:07:00,pth,1.20
2022-05-29T22:09:00,pth,1.20
2022-05-29T22:11:00,pth,1.20
2022-05-29T22:13:00,pth,2.40
2022-05-29T22:15:00,pth,1.20
2022-05-29T22:17:00,pth,1.20
2022-05-29T22:19:00,pth,1.20
2022-05-29T22:20:00,pth,1.20
2022-05-29T22:22:00,pth,1.20
2022-05-29T22:24:00,pth,1.20
2022-05-29T22:25:00,pth,1.20
2022-05-29T22:27:00,pth,1.20
2022-05-29T22:29:00,pth,1.20
2022-05-29T22:31:00,pth,2.40
2022-05-29T22:34:00,pth,1.20
2022-05-29T22:36:00,pth,2.40
2022-05-29T22:38:00,pth,1.20
2022-05-29T22:41:00,pth,2.40
2022-05-29T22:43:00,pth,1.20
2022-05-29T22:45:00,pth,2.40
2022-05-29T22:47:00,pth,1.20
2022-05-29T22:49:00,pth,2.40
2022-05-29T22:51:00,pth,1.20
2022-05-29T22:53:00,pth,1.20
2022-05-29T22:54:00,pth,1.20
2022-05-29T22:56:00,pth,1.20
2022-05-29T22:57:00,pth,1.20
2022-05-29T22:59:00,pth,1.20
2022-05-29T23:01:00,pth,1.20
2022-05-29T23:03:00,pth,1.20
2022-05-29T23:04:00,pth,1.20
2022-05-29T23:06:00,pth,1.20
2022-05-29T23:08:00,pth,2.40
2022-05-29T23:10:00,pth,1.20
2022-05-29T23:12:00,pth,1.20
2022-05-29T23:14:00,pth,1.20
2022-05-29T23:16:00,pth,2.40
2022-05-29T23:18:00,pth,1.20
